YYYY,MM,DD,YYYY,DOY,JD,HH,MM,SS,Days from JCA,Jovicentric Range [AU],Jovicentric Range [Rj],Jovicentric Range [km],Velocity magnitude wrt Jupiter [km/s],Sun-Jupiter-Probe Angle [deg],Earth-Jupiter-Probe Angle [deg],Right Ascension wrt Jupiter Equator [deg],Declination wrt Jupiter Equator [deg]
2003,11,6,2003,310,2452950.4,22,36,55,-90,1.077,2256.029,161075993.808,13.874,75.98,76.76,319.02,74.37
2003,11,7,2003,311,2452951.4,22,36,55,-89,1.071,2245.019,160289870.809,13.877,76.03,76.77,320.12,74.50
2003,11,8,2003,312,2452952.4,22,36,55,-88,1.066,2234.076,159508543.456,13.878,76.08,76.78,321.26,74.62
2003,11,9,2003,313,2452953.4,22,36,55,-87,1.061,2223.201,158732107.668,13.881,76.14,76.79,322.42,74.74
2003,11,10,2003,314,2452954.4,22,36,55,-86,1.056,2212.396,157960646.221,13.883,76.19,76.80,323.61,74.85
2003,11,11,2003,315,2452955.4,22,36,55,-85,1.051,2201.662,157194228.112,13.886,76.24,76.81,324.83,74.96
2003,11,12,2003,316,2452956.4,22,36,55,-84,1.046,2190.999,156432925.718,13.890,76.29,76.81,326.08,75.06
2003,11,13,2003,317,2452957.4,22,36,55,-83,1.041,2180.408,155676778.802,13.891,76.34,76.82,327.36,75.16
2003,11,14,2003,318,2452958.4,22,36,55,-82,1.036,2169.892,154925922.529,13.894,76.40,76.82,328.67,75.25
2003,11,15,2003,319,2452959.4,22,36,55,-81,1.031,2159.450,154180408.580,13.895,76.45,76.82,330.00,75.33
2003,11,16,2003,320,2452960.4,22,36,55,-80,1.026,2149.085,153440350.004,13.897,76.50,76.82,331.36,75.41
2003,11,17,2003,321,2452961.4,22,36,55,-79,1.021,2138.797,152705822.778,13.899,76.55,76.82,332.75,75.47
2003,11,18,2003,322,2452962.4,22,36,55,-78,1.016,2128.588,151976928.393,13.901,76.61,76.82,334.17,75.54
2003,11,19,2003,323,2452963.4,22,36,55,-77,1.011,2118.459,151253736.113,13.905,76.66,76.82,335.60,75.59
2003,11,20,2003,324,2452964.4,22,36,55,-76,1.006,2108.411,150536299.602,13.905,76.71,76.81,337.07,75.63
2003,11,21,2003,325,2452965.4,22,36,55,-75,1.002,2098.445,149824750.628,13.908,76.76,76.80,338.55,75.67
2003,11,22,2003,326,2452966.4,22,36,55,-74,0.997,2088.562,149119152.908,13.909,76.81,76.80,340.05,75.69
2003,11,23,2003,327,2452967.4,22,36,55,-73,0.992,2078.765,148419631.431,13.911,76.87,76.79,341.58,75.71
2003,11,24,2003,328,2452968.4,22,36,55,-72,0.987,2069.053,147726255.801,13.912,76.92,76.78,343.12,75.72
2003,11,25,2003,329,2452969.4,22,36,55,-71,0.983,2059.430,147039154.958,13.915,76.97,76.77,344.67,75.71
2003,11,26,2003,330,2452970.4,22,36,55,-70,0.978,2049.895,146358391.897,13.918,77.02,76.75,346.24,75.70
2003,11,27,2003,331,2452971.4,22,36,55,-69,0.974,2040.450,145684034.427,13.919,77.08,76.74,347.81,75.68
2003,11,28,2003,332,2452972.4,22,36,55,-68,0.969,2031.096,145016199.591,13.922,77.13,76.73,349.40,75.64
2003,11,29,2003,333,2452973.4,22,36,55,-67,0.965,2021.835,144354964.805,13.922,77.18,76.71,350.99,75.60
2003,11,30,2003,334,2452974.4,22,36,55,-66,0.961,2012.668,143700458.223,13.925,77.23,76.70,352.59,75.54
2003,12,1,2003,335,2452975.4,22,36,55,-65,0.956,2003.593,143052538.968,13.926,77.29,76.68,354.18,75.47
2003,12,2,2003,336,2452976.4,22,36,55,-64,0.952,1994.618,142411747.944,13.929,77.34,76.66,355.78,75.39
2003,12,3,2003,337,2452977.4,22,36,55,-63,0.948,1985.741,141777961.683,13.931,77.39,76.64,357.37,75.30
2003,12,4,2003,338,2452978.4,22,36,55,-62,0.944,1976.964,141151266.838,13.932,77.44,76.62,358.95,75.20
2003,12,5,2003,339,2452979.4,22,36,55,-61,0.939,1968.287,140531762.759,13.934,77.50,76.60,0.53,75.08
2003,12,6,2003,340,2452980.4,22,36,55,-60,0.935,1959.712,139919548.026,13.935,77.55,76.58,2.09,74.96
2003,12,7,2003,341,2452981.4,22,36,55,-59,0.931,1951.242,139314750.736,13.937,77.60,76.56,3.64,74.82
2003,12,8,2003,342,2452982.4,22,36,55,-58,0.927,1942.876,138717440.097,13.937,77.65,76.54,5.17,74.67
2003,12,9,2003,343,2452983.4,22,36,55,-57,0.923,1934.617,138127783.887,13.940,77.71,76.52,6.69,74.50
2003,12,10,2003,344,2452984.4,22,36,55,-56,0.919,1926.466,137545844.355,13.941,77.76,76.50,8.19,74.33
2003,12,11,2003,345,2452985.4,22,36,55,-55,0.916,1918.425,136971726.778,13.943,77.81,76.48,9.67,74.15
2003,12,12,2003,346,2452986.4,22,36,55,-54,0.912,1910.495,136405506.807,13.945,77.86,76.45,11.12,73.95
2003,12,13,2003,347,2452987.4,22,36,55,-53,0.908,1902.677,135847302.680,13.945,77.92,76.43,12.56,73.74
2003,12,14,2003,348,2452988.4,22,36,55,-52,0.904,1894.972,135297231.225,13.948,77.97,76.41,13.96,73.52
2003,12,15,2003,349,2452989.4,22,36,55,-51,0.901,1887.383,134755365.399,13.947,78.02,76.39,15.34,73.29
2003,12,16,2003,350,2452990.4,22,36,55,-50,0.897,1879.911,134221874.388,13.950,78.08,76.36,16.70,73.05
2003,12,17,2003,351,2452991.4,22,36,55,-49,0.894,1872.557,133696822.700,13.952,78.13,76.34,18.03,72.80
2003,12,18,2003,352,2452992.4,22,36,55,-48,0.890,1865.323,133180327.754,13.954,78.18,76.32,19.33,72.54
2003,12,19,2003,353,2452993.4,22,36,55,-47,0.887,1858.209,132672437.060,13.955,78.24,76.30,20.60,72.26
2003,12,20,2003,354,2452994.4,22,36,55,-46,0.884,1851.218,132173286.226,13.956,78.29,76.28,21.84,71.98
2003,12,21,2003,355,2452995.4,22,36,55,-45,0.880,1844.351,131682975.110,13.957,78.34,76.26,23.05,71.69
2003,12,22,2003,356,2452996.4,22,36,55,-44,0.877,1837.609,131201586.855,13.957,78.40,76.24,24.24,71.38
2003,12,23,2003,357,2452997.4,22,36,55,-43,0.874,1830.994,130729283.901,13.959,78.45,76.22,25.39,71.07
2003,12,24,2003,358,2452998.4,22,36,55,-42,0.871,1824.507,130266142.679,13.960,78.50,76.20,26.52,70.75
2003,12,25,2003,359,2452999.4,22,36,55,-41,0.868,1818.150,129812292.068,13.962,78.56,76.19,27.62,70.42
2003,12,26,2003,360,2453000.4,22,36,55,-40,0.865,1811.924,129367756.275,13.963,78.61,76.17,28.69,70.08
2003,12,27,2003,361,2453001.4,22,36,55,-39,0.862,1805.831,128932686.609,13.963,78.66,76.16,29.73,69.73
2003,12,28,2003,362,2453002.4,22,36,55,-38,0.859,1799.871,128507162.196,13.965,78.72,76.14,30.74,69.38
2003,12,29,2003,363,2453003.4,22,36,55,-37,0.856,1794.046,128091278.127,13.964,78.77,76.13,31.73,69.01
2003,12,30,2003,364,2453004.4,22,36,55,-36,0.854,1788.358,127685174.974,13.967,78.82,76.12,32.69,68.64
2003,12,31,2003,365,2453005.4,22,36,55,-35,0.851,1782.808,127288941.057,13.968,78.88,76.11,33.63,68.26
2004,1,1,2004,1,2453006.4,22,36,55,-34,0.848,1777.433,126905138.040,13.970,78.93,76.11,34.54,67.87
2004,1,2,2004,2,2453007.4,22,36,55,-33,0.846,1772.162,126528850.941,13.970,78.98,76.10,35.42,67.48
2004,1,3,2004,3,2453008.4,22,36,55,-32,0.843,1767.034,126162708.085,13.971,79.04,76.10,36.29,67.08
2004,1,4,2004,4,2453009.4,22,36,55,-31,0.841,1762.049,125806758.171,13.972,79.09,76.10,37.12,66.67
2004,1,5,2004,5,2453010.4,22,36,55,-30,0.839,1757.208,125461103.408,13.972,79.14,76.10,37.94,66.25
2004,1,6,2004,6,2453011.4,22,36,55,-29,0.836,1752.512,125125848.120,13.974,79.20,76.10,38.73,65.83
2004,1,7,2004,7,2453012.4,22,36,55,-28,0.834,1747.963,124801095.441,13.974,79.25,76.11,39.50,65.40
2004,1,8,2004,8,2453013.4,22,36,55,-27,0.832,1743.564,124486962.370,13.976,79.30,76.12,40.25,64.97
2004,1,9,2004,9,2453014.4,22,36,55,-26,0.830,1739.312,124183428.364,13.976,79.36,76.13,40.98,64.53
2004,1,10,2004,10,2453015.4,22,36,55,-25,0.828,1735.212,123890640.301,13.976,79.41,76.14,41.68,64.08
2004,1,11,2004,11,2453016.4,22,36,55,-24,0.826,1731.262,123608622.517,13.977,79.46,76.16,42.37,63.63
2004,1,12,2004,12,2453017.4,22,36,55,-23,0.824,1727.464,123337488.259,13.976,79.52,76.18,43.04,63.18
2004,1,13,2004,13,2453018.4,22,36,55,-22,0.823,1723.820,123077301.511,13.978,79.57,76.20,43.70,62.71
2004,1,14,2004,14,2453019.4,22,36,55,-21,0.821,1720.331,122828184.537,13.978,79.62,76.22,44.33,62.25
2004,1,15,2004,15,2453020.4,22,36,55,-20,0.819,1716.998,122590235.634,13.980,79.68,76.25,44.95,61.78
2004,1,16,2004,16,2453021.4,22,36,55,-19,0.818,1713.821,122363421.087,13.980,79.73,76.28,45.55,61.30
2004,1,17,2004,17,2453022.4,22,36,55,-18,0.817,1710.802,122147864.255,13.981,79.78,76.32,46.14,60.82
2004,1,18,2004,18,2453023.4,22,36,55,-17,0.815,1707.941,121943558.850,13.981,79.83,76.36,46.70,60.34
2004,1,19,2004,19,2453024.4,22,36,55,-16,0.814,1705.238,121750614.312,13.981,79.89,76.40,47.26,59.85
2004,1,20,2004,20,2453025.4,22,36,55,-15,0.813,1702.695,121569038.458,13.981,79.94,76.44,47.80,59.36
2004,1,21,2004,21,2453026.4,22,36,55,-14,0.812,1700.313,121398962.172,13.981,79.99,76.49,48.33,58.86
2004,1,22,2004,22,2453027.4,22,36,55,-13,0.810,1698.093,121240449.659,13.984,80.04,76.54,48.84,58.37
2004,1,23,2004,23,2453028.4,22,36,55,-12,0.809,1696.034,121093457.969,13.983,80.10,76.60,49.34,57.86
2004,1,24,2004,24,2453029.4,22,36,55,-11,0.809,1694.138,120958072.702,13.984,80.15,76.66,49.82,57.36
2004,1,25,2004,25,2453030.4,22,36,55,-10,0.808,1692.404,120834264.151,13.983,80.20,76.73,50.30,56.85
2004,1,26,2004,26,2453031.4,22,36,55,-9,0.807,1690.834,120722136.218,13.982,80.25,76.79,50.76,56.34
2004,1,27,2004,27,2453032.4,22,36,55,-8,0.806,1689.426,120621647.593,13.982,80.30,76.87,51.21,55.83
2004,1,28,2004,28,2453033.4,22,36,55,-7,0.806,1688.184,120532943.233,13.982,80.35,76.94,51.65,55.31
2004,1,29,2004,29,2453034.4,22,36,55,-6,0.805,1687.107,120456056.747,13.984,80.40,77.02,52.08,54.79
2004,1,30,2004,30,2453035.4,22,36,55,-5,0.805,1686.195,120390951.999,13.983,80.46,77.11,52.50,54.27
2004,1,31,2004,31,2453036.4,22,36,55,-4,0.804,1685.449,120337669.344,13.984,80.51,77.20,52.91,53.75
2004,2,1,2004,32,2453037.4,22,36,55,-3,0.804,1684.861,120295739.663,13.983,80.56,77.29,53.31,53.23
2004,2,2,2004,33,2453038.4,22,36,55,-2,0.804,1684.447,120266155.607,13.983,80.61,77.39,53.70,52.70
2004,2,3,2004,34,2453039.4,22,36,55,-1,0.804,1684.198,120248340.212,13.983,80.65,77.49,54.08,52.18
2004,2,4,2004,35,2453040.4,22,36,55,0,0.804,1684.115,120242435.635,13.982,80.70,77.59,54.45,51.65
2004,2,5,2004,36,2453041.4,22,36,55,1,0.804,1684.199,120248430.674,13.984,80.75,77.70,54.81,51.12
2004,2,6,2004,37,2453042.4,22,36,55,2,0.804,1684.449,120266291.330,13.983,80.80,77.81,55.17,50.59
2004,2,7,2004,38,2453043.4,22,36,55,3,0.804,1684.865,120295992.439,13.984,80.85,77.93,55.51,50.06
2004,2,8,2004,39,2453044.4,22,36,55,4,0.804,1685.446,120337472.583,13.983,80.90,78.05,55.85,49.52
2004,2,9,2004,40,2453045.4,22,36,55,5,0.805,1686.193,120390786.602,13.982,80.94,78.18,56.18,48.99
2004,2,10,2004,41,2453046.4,22,36,55,6,0.805,1687.103,120455796.147,13.981,80.99,78.31,56.51,48.46
2004,2,11,2004,42,2453047.4,22,36,55,7,0.806,1688.179,120532636.160,13.981,81.04,78.44,56.82,47.93
2004,2,12,2004,43,2453048.4,22,36,55,8,0.806,1689.421,120621261.160,13.982,81.08,78.58,57.13,47.39
2004,2,13,2004,44,2453049.4,22,36,55,9,0.807,1690.827,120721656.834,13.980,81.13,78.72,57.43,46.86
2004,2,14,2004,45,2453050.4,22,36,55,10,0.808,1692.397,120833740.753,13.981,81.17,78.86,57.73,46.33
2004,2,15,2004,46,2453051.4,22,36,55,11,0.809,1694.129,120957456.398,13.979,81.22,79.01,58.02,45.79
2004,2,16,2004,47,2453052.4,22,36,55,12,0.809,1696.026,121092828.925,13.979,81.26,79.16,58.30,45.26
2004,2,17,2004,48,2453053.4,22,36,55,13,0.810,1698.083,121239693.999,13.978,81.31,79.32,58.58,44.73
2004,2,18,2004,49,2453054.4,22,36,55,14,0.811,1700.302,121398170.489,13.977,81.35,79.48,58.85,44.20
2004,2,19,2004,50,2453055.4,22,36,55,15,0.813,1702.683,121568180.979,13.978,81.39,79.64,59.12,43.67
2004,2,20,2004,51,2453056.4,22,36,55,16,0.814,1705.226,121749726.128,13.977,81.44,79.81,59.38,43.14
2004,2,21,2004,52,2453057.4,22,36,55,17,0.815,1707.928,121942654.928,13.978,81.48,79.98,59.64,42.61
2004,2,22,2004,53,2453058.4,22,36,55,18,0.817,1710.789,122146909.483,13.976,81.52,80.15,59.89,42.08
2004,2,23,2004,54,2453059.4,22,36,55,19,0.818,1713.808,122362464.889,13.976,81.56,80.32,60.13,41.56
2004,2,24,2004,55,2453060.4,22,36,55,20,0.819,1716.983,122589133.093,13.974,81.60,80.50,60.37,41.03
2004,2,25,2004,56,2453061.4,22,36,55,21,0.821,1720.314,122826997.368,13.973,81.64,80.68,60.61,40.51
2004,2,26,2004,57,2453062.4,22,36,55,22,0.823,1723.801,123075953.829,13.973,81.68,80.86,60.84,39.99
2004,2,27,2004,58,2453063.4,22,36,55,23,0.824,1727.444,123336020.351,13.972,81.71,81.05,61.07,39.47
2004,2,28,2004,59,2453064.4,22,36,55,24,0.826,1731.239,123606990.332,13.972,81.75,81.24,61.29,38.95
2004,2,29,2004,60,2453065.4,22,36,55,25,0.828,1735.186,123888821.778,13.970,81.79,81.43,61.51,38.44
2004,3,1,2004,61,2453066.4,22,36,55,26,0.830,1739.286,124181537.476,13.970,81.82,81.62,61.72,37.92
2004,3,2,2004,62,2453067.4,22,36,55,27,0.832,1743.533,124484781.204,13.967,81.86,81.81,61.93,37.41
2004,3,3,2004,63,2453068.4,22,36,55,28,0.834,1747.930,124798694.902,13.967,81.89,82.01,62.14,36.90
2004,3,4,2004,64,2453069.4,22,36,55,29,0.836,1752.474,125123171.575,13.966,81.93,82.21,62.34,36.39
2004,3,5,2004,65,2453070.4,22,36,55,30,0.839,1757.168,125458250.944,13.965,81.96,82.41,62.54,35.89
2004,3,6,2004,66,2453071.4,22,36,55,31,0.841,1762.006,125803682.841,13.965,81.99,82.61,62.74,35.38
2004,3,7,2004,67,2453072.4,22,36,55,32,0.843,1766.988,126159439.136,13.963,82.03,82.81,62.93,34.88
2004,3,8,2004,68,2453073.4,22,36,55,33,0.846,1772.114,126525407.337,13.963,82.06,83.01,63.12,34.39
2004,3,9,2004,69,2453074.4,22,36,55,34,0.848,1777.381,126901414.855,13.960,82.09,83.21,63.30,33.89
2004,3,10,2004,70,2453075.4,22,36,55,35,0.851,1782.787,127287459.097,13.960,82.12,83.42,63.48,33.40
2004,3,11,2004,71,2453076.4,22,36,55,36,0.854,1788.333,127683426.802,13.959,82.15,83.62,63.66,32.91
2004,3,12,2004,72,2453077.4,22,36,55,37,0.856,1794.019,128089361.483,13.958,82.17,83.83,63.84,32.42
2004,3,13,2004,73,2453078.4,22,36,55,38,0.859,1799.840,128504975.417,13.957,82.20,84.03,64.01,31.94
2004,3,14,2004,74,2453079.4,22,36,55,39,0.862,1805.796,128930250.745,13.955,82.23,84.24,64.18,31.46
2004,3,15,2004,75,2453080.4,22,36,55,40,0.865,1811.886,129365032.878,13.955,82.25,84.44,64.35,30.98
2004,3,16,2004,76,2453081.4,22,36,55,41,0.868,1818.107,129809177.824,13.951,82.28,84.65,64.51,30.50
2004,3,17,2004,77,2453082.4,22,36,55,42,0.871,1824.458,130262636.179,13.950,82.30,84.85,64.67,30.03
2004,3,18,2004,78,2453083.4,22,36,55,43,0.874,1830.938,130725317.327,13.949,82.33,85.06,64.83,29.56
2004,3,19,2004,79,2453084.4,22,36,55,44,0.877,1837.548,131197279.447,13.948,82.35,85.26,64.98,29.10
2004,3,20,2004,80,2453085.4,22,36,55,45,0.880,1844.285,131678230.709,13.947,82.37,85.47,65.14,28.63
2004,3,21,2004,81,2453086.4,22,36,55,46,0.883,1851.147,132168171.974,13.945,82.39,85.67,65.29,28.18
2004,3,22,2004,82,2453087.4,22,36,55,47,0.887,1858.132,132666919.251,13.944,82.42,85.87,65.44,27.72
2004,3,23,2004,83,2453088.4,22,36,55,48,0.890,1865.239,133174364.348,13.941,82.44,86.07,65.58,27.27
2004,3,24,2004,84,2453089.4,22,36,55,49,0.894,1872.467,133690401.395,13.940,82.45,86.27,65.73,26.82
2004,3,25,2004,85,2453090.4,22,36,55,50,0.897,1879.814,134214959.704,13.938,82.47,86.47,65.87,26.37
2004,3,26,2004,86,2453091.4,22,36,55,51,0.901,1887.281,134748088.097,13.938,82.49,86.67,66.01,25.93
2004,3,27,2004,87,2453092.4,22,36,55,52,0.904,1894.864,135289490.813,13.936,82.51,86.86,66.14,25.49
2004,3,28,2004,88,2453093.4,22,36,55,53,0.908,1902.563,135839164.067,13.934,82.52,87.05,66.28,25.05
2004,3,29,2004,89,2453094.4,22,36,55,54,0.912,1910.374,136396890.019,13.933,82.54,87.24,66.41,24.62
2004,3,30,2004,90,2453095.4,22,36,55,55,0.916,1918.297,136962591.218,13.930,82.55,87.43,66.54,24.19
2004,3,31,2004,91,2453096.4,22,36,55,56,0.919,1926.330,137536104.710,13.929,82.57,87.62,66.67,23.77
2004,4,1,2004,92,2453097.4,22,36,55,57,0.923,1934.473,138117495.529,13.926,82.58,87.81,66.80,23.34
2004,4,2,2004,93,2453098.4,22,36,55,58,0.927,1942.724,138706595.350,13.926,82.59,87.99,66.92,22.92
2004,4,3,2004,94,2453099.4,22,36,55,59,0.931,1951.080,139303244.515,13.923,82.60,88.17,67.05,22.51
2004,4,4,2004,95,2453100.4,22,36,55,60,0.935,1959.543,139907445.010,13.921,82.61,88.35,67.17,22.10
2004,4,5,2004,96,2453101.4,22,36,55,61,0.939,1968.108,140518975.478,13.920,82.62,88.52,67.29,21.69
2004,4,6,2004,97,2453102.4,22,36,55,62,0.943,1976.775,141137804.166,13.917,82.63,88.69,67.41,21.28
2004,4,7,2004,98,2453103.4,22,36,55,63,0.948,1985.542,141763726.656,13.915,82.64,88.86,67.52,20.88
2004,4,8,2004,99,2453104.4,22,36,55,64,0.952,1994.408,142396741.905,13.912,82.65,89.03,67.64,20.48
2004,4,9,2004,100,2453105.4,22,36,55,65,0.956,2003.374,143036876.570,13.912,82.66,89.20,67.75,20.09
2004,4,10,2004,101,2453106.4,22,36,55,66,0.960,2012.436,143683900.859,13.910,82.66,89.36,67.86,19.70
2004,4,11,2004,102,2453107.4,22,36,55,67,0.965,2021.594,144337799.334,13.908,82.67,89.51,67.97,19.31
2004,4,12,2004,103,2453108.4,22,36,55,68,0.969,2030.846,144998340.634,13.907,82.67,89.67,68.08,18.93
2004,4,13,2004,104,2453109.4,22,36,55,69,0.974,2040.190,145665514.506,13.904,82.68,89.82,68.19,18.55
2004,4,14,2004,105,2453110.4,22,36,55,70,0.978,2049.624,146339065.562,13.902,82.68,89.97,68.29,18.17
2004,4,15,2004,106,2453111.4,22,36,55,71,0.983,2059.148,147019016.844,13.898,82.68,90.12,68.40,17.80
2004,4,16,2004,107,2453112.4,22,36,55,72,0.987,2068.761,147705366.681,13.898,82.68,90.26,68.50,17.43
2004,4,17,2004,108,2453113.4,22,36,55,73,0.992,2078.461,148397933.100,13.895,82.69,90.40,68.60,17.06
2004,4,18,2004,109,2453114.4,22,36,55,74,0.997,2088.247,149096681.339,13.893,82.69,90.53,68.70,16.69
2004,4,19,2004,110,2453115.4,22,36,55,75,1.001,2098.118,149801395.467,13.891,82.69,90.66,68.80,16.33
2004,4,20,2004,111,2453116.4,22,36,55,76,1.006,2108.072,150512096.325,13.888,82.69,90.79,68.90,15.98
2004,4,21,2004,112,2453117.4,22,36,55,77,1.011,2118.106,151228508.510,13.885,82.68,90.92,68.99,15.62
2004,4,22,2004,113,2453118.4,22,36,55,78,1.016,2128.221,151950693.193,13.882,82.68,91.04,69.09,15.27
2004,4,23,2004,114,2453119.4,22,36,55,79,1.021,2138.416,152678632.990,13.882,82.68,91.15,69.18,14.93
2004,4,24,2004,115,2453120.4,22,36,55,80,1.025,2148.691,153412212.232,13.878,82.68,91.27,69.27,14.58
2004,4,25,2004,116,2453121.4,22,36,55,81,1.030,2159.043,154151372.820,13.877,82.67,91.38,69.37,14.24
2004,4,26,2004,117,2453122.4,22,36,55,82,1.035,2169.471,154895920.929,13.875,82.67,91.48,69.46,13.91
2004,4,27,2004,118,2453123.4,22,36,55,83,1.040,2179.975,155645887.016,13.872,82.66,91.59,69.54,13.57
2004,4,28,2004,119,2453124.4,22,36,55,84,1.045,2190.551,156400972.448,13.869,82.66,91.69,69.63,13.24
2004,4,29,2004,120,2453125.4,22,36,55,85,1.051,2201.200,157161248.592,13.866,82.65,91.78,69.72,12.91
2004,4,30,2004,121,2453126.4,22,36,55,86,1.056,2211.920,157926662.615,13.865,82.64,91.87,69.80,12.59
2004,5,1,2004,122,2453127.4,22,36,55,87,1.061,2222.711,158697148.009,13.862,82.63,91.96,69.89,12.27
2004,5,2,2004,123,2453128.4,22,36,55,88,1.066,2233.573,159472628.166,13.861,82.62,92.04,69.97,11.95
2004,5,3,2004,124,2453129.4,22,36,55,89,1.071,2244.501,160252916.751,13.857,82.62,92.12,70.06,11.63
2004,5,4,2004,125,2453130.4,22,36,55,90,1.076,2255.498,161038044.416,13.855,82.61,92.20,70.14,11.32
